Flag for U.S.A. Weather past 2 weeks in Chicago, Illinois, U.S.A.

Now
68 °F

Clear.


Feels Like: 68 °F
Forecast: 69 / 83 °F
Wind: 7 mph from West

Location: Chicago Midway Airport

Current Time: Aug 1, 2015 at 5:52:55 AM

Latest Report: Aug 1, 2015 at 4:53 AM


Visibility: 10 mi

Pressure: 29.95 "Hg

Humidity: 57%

Dew point: 52 °F

Location of ChicagoLocation

Historic Weather in Chicago — Graph

°F

Chicago temperature yesterday

Maximum temperature yesterday: 89 °F (at 1:53 PM)
Minimum temperature yesterday: 71 °F (at 5:53 AM)
Average temperature yesterday: 80 °F

Past Weeks' High & Low Weather Summary

 TemperatureHumidityPressure
High93 °F (Jul 28, 3:53 PM)88% (Jul 17, 4:53 AM)30.03 "Hg (Jul 17, 4:53 AM)
Low68 °F (Jul 20, 4:53 AM)24% (Jul 29, 3:53 PM)29.71 "Hg (Jul 20, 6:53 PM)
Average80 °F57%29.90 "Hg
* Reported Jul 17 4:53 AM — Aug 1 4:53 AM, Chicago, Weather by CustomWeather, © 2015

Note: Actual official high and low records may vary slightly from our data, if they occured in-between our weather recording intervals... More about our weather records

Advertising

Chicago weather history for previous 24 hours

 ConditionsComfort  
Time TempWeatherWind HumidityBarometerVisibility
4:53 AM
Sat, Aug 1
68 °FClear.7 mph57%29.95 "Hg10 mi
3:53 AM68 °FClear.6 mph57%29.95 "Hg10 mi
2:53 AM70 °FClear.5 mph51%29.94 "Hg10 mi
1:53 AM71 °FClear.7 mph49%29.95 "Hg10 mi
12:53 AM72 °FClear.5 mph48%29.95 "Hg10 mi
11:53 PM
Fri, Jul 31
74 °FClear.7 mph45%29.94 "Hg10 mi
10:53 PM75 °FClear.7 mph42%29.94 "Hg10 mi
9:53 PM77 °FPassing clouds.6 mph37%29.93 "Hg10 mi
8:53 PM80 °FPassing clouds.8 mph32%29.92 "Hg10 mi
7:53 PM82 °FPassing clouds.13 mph31%29.91 "Hg10 mi
6:53 PM84 °FPassing clouds.15 mph27%29.90 "Hg10 mi
5:53 PM86 °FPassing clouds.16 mph25%29.90 "Hg10 mi
4:53 PM88 °FPassing clouds.17 mph26%29.90 "Hg10 mi
3:53 PM89 °FPassing clouds.18 mph24%29.90 "Hg10 mi
2:53 PM89 °FPassing clouds.22 mph27%29.91 "Hg10 mi
1:53 PM89 °FPassing clouds.16 mph26%29.92 "Hg10 mi
12:53 PM88 °FScattered clouds.17 mph28%29.93 "Hg10 mi
11:53 AM87 °FPassing clouds.14 mph32%29.95 "Hg10 mi
10:53 AM84 °FPassing clouds.14 mph51%29.96 "Hg10 mi
9:53 AM81 °FPassing clouds.12 mph54%29.97 "Hg10 mi
8:53 AM76 °FScattered clouds.10 mph62%29.97 "Hg10 mi
7:53 AM75 °FPartly sunny.6 mph60%29.99 "Hg10 mi
6:53 AM72 °FPassing clouds.8 mph64%29.98 "Hg10 mi
5:53 AM71 °FPassing clouds.6 mph61%29.98 "Hg10 mi
Weather by CustomWeather, © 2015

See weather overviewHow to use our weather pages